Location: Boston
(42.3580°N, 71.0600°W)
Time: 02:12:09
(UTC-04:00)

Vanguard 1 Rocket - Visible Passes

Search period start: 24 October 2017 00:00
Search period end: 03 November 2017 00:00
Orbit: 655 x 4222 km, 34.3° (Epoch: 23 October)

Date Brightness Start Highest point End Pass type
(mag) Time Alt. Az. Time Alt. Az. Time Alt. Az.
24 Oct 10.3 04:35:24 10° SSW 04:44:31 21° SSE 04:50:37 10° ESE visible
25 Oct 10.8 03:25:55 12° S 03:32:34 16° SSE 03:38:33 10° ESE visible
25 Oct 9.6 05:49:04 10° SW 05:59:19 33° SSE 06:05:23 10° ESE visible
26 Oct 11.2 02:19:37 11° SSE 02:20:14 11° SSE 02:22:52 10° SE visible
26 Oct 10.0 04:36:59 11° SSW 04:47:45 28° SSE 04:54:44 10° ESE visible
27 Oct 10.5 03:30:33 19° S 03:35:46 22° SSE 03:43:26 10° ESE visible
27 Oct 9.3 05:51:06 10° SW 06:02:33 39° S 06:08:58 10° ESE visible
28 Oct 10.9 02:24:01 17° SE 02:24:01 17° SE 02:30:48 10° ESE visible
28 Oct 9.8 04:41:22 17° SSW 04:50:58 35° SSE 04:58:31 10° E visible
29 Oct 10.3 03:34:44 26° S 03:38:55 29° SSE 03:47:36 10° ESE visible
29 Oct 9.2 05:53:21 10° WSW 06:05:45 46° S 06:12:26 10° ESE visible
30 Oct 10.7 02:28:00 23° SE 02:28:00 23° SE 02:35:48 10° ESE visible
30 Oct 9.6 04:45:19 22° SW 04:54:07 42° SSE 05:02:06 10° E visible
31 Oct 11.2 01:21:12 11° ESE 01:21:12 11° ESE 01:22:15 10° ESE visible
31 Oct 10.1 03:38:31 33° S 03:42:00 36° SSE 03:51:23 10° E visible
31 Oct 9.1 05:55:50 10° WSW 06:08:55 51° S 06:15:52 10° ESE visible
01 Nov 10.5 02:31:39 29° SE 02:31:39 29° SE 02:40:02 10° E visible
01 Nov 9.5 04:48:58 27° SW 04:57:14 48° S 05:05:35 10° E visible
02 Nov 11.1 01:24:43 15° ESE 01:24:43 15° ESE 01:27:32 10° ESE visible
02 Nov 9.9 03:42:02 40° S 03:45:03 43° SSE 03:54:59 10° E visible
02 Nov 9.1 05:59:20 12° WSW 06:12:03 54° S 06:19:13 10° ESE visible
